Weather WX

World > North America > United States > Ohio

Columbia, Ohio Regional Weather

Lat: 41.63N, Lon: 84.79W
Wx Zone: OHZ039
Warning FLW WEATHER ALERT - (More Info. Click Here) Warning
Feedback

Columbia, OH Regional Weather

Expires:201907181800;;260171
ASUS41 KCLE 181712
RWRCLE
OHIO REGIONAL WEATHER ROUNDUP
NATIONAL WEATHER SERVICE WILMINGTON, OH
100 PM EDT THU JUL 18 2019

NOTE: "FAIR" INDICATES FEW OR NO CLOUDS BELOW 12,000 FEET WITH NO
SIGNIFICANT WEATHER AND/OR OBSTRUCTIONS TO VISIBILITY.


OHZ036-037-039>041-045>050-054>059-063>069-073>076-082>088-181800-
  CENTRAL AND SOUTHEAST OHIO
  
CITY           SKY/WX    TMP DP  RH WIND       PRES   REMARKS
COLUMBUS       FAIR      86  71  60 W8        29.98R HX  91           
OSU AIRPORT    FAIR      88  71  57 SW7       29.99R HX  94           
BOLTON FIELD   MOSUNNY   84  73  70 W8        29.99S HX  91           
RICKENBACK AFB PTSUNNY   85  73  65 W5        29.98S HX  92           
NEWARK         FAIR      86  73  65 W5        29.98R HX  93           
MARION         FAIR      85  69  58 SW8       29.99S                  
LANCASTER      FAIR      85  73  67 NW7       29.99R HX  91           
ZANESVILLE     FAIR      82  72  71 CALM      30.00R                  
NEW PHILLY     FAIR      83  71  67 CALM      29.99R                  
$$
  

SKY/WX - Weather  TMP - Temperature  DP - Dew Point  RH - Relative Humidity
WIND - Wind Direction/Speed PRES - Barometric Pressure VSB - Visibility
WCI - Wind Chill Index E13G22 Wind - East Wind 13 mph/Gusts of 22 mph